Weather History for Gillette, WY

Change the Weather History Date:

Friday, January 31, 2014

  Actual Average Record
Temperature  
Mean Temperature 19 °F 26 °F  
Max Temperature 36 °F 37 °F 36 °F (2014)
Min Temperature 1 °F 15 °F 1 °F (2014)
Degree Days  
Heating Degree Days 46 39  
Month to date heating degree days 1191 1214  
Since 1 July heating degree days 4303 4355  
Cooling Degree Days 0 0  
Month to date cooling degree days 0 0  
Year to date cooling degree days 0 0  
Moisture  
Dew Point 10 °F    
Average Humidity 67    
Maximum Humidity 87    
Minimum Humidity 47    
Precipitation  
Precipitation 0.00 in 0.02 in 0.00 in (2014)
Month to date precipitation 0.39 0.39  
Year to date precipitation 0.39 0.39  
Sea Level Pressure  
Sea Level Pressure 29.90 in    
Wind  
Wind Speed 10 mph (SW)    
Max Wind Speed 28 mph    
Max Gust Speed 35 mph    
Visibility 10 miles    
Events      
T = Trace of Precipitation, MM = Missing Value Source: NWS Daily Summary

Daily Weather History Graph

Daily Weather History Graph

Search for Another Location

Airport:

Trip Planner

Search our weather history database for the weather conditions in past years. The results will help you decide how hot, cold, wet, or windy it might be!

Date:

Astronomy

Jan. 31, 2014 Rise Set
Actual Time 7:21 AM MST 5:10 PM MST
Civil Twilight 6:50 AM MST 5:41 PM MST
Nautical Twilight 6:15 AM MST 6:16 PM MST
Astronomical Twilight 5:41 AM MST 6:50 PM MST
Moon 7:28 AM MST (1/31) 6:43 PM MST (1/31)
Length of Visible Light 10h 51m
Length of Day
9h 49m
New Moon, 1% of the Moon is Illuminated
Jan 31
New Moon
Feb 6
First Quarter
Feb 14
Full
Feb 22
Last Quarter
Mar 1
New

Hourly Weather History & Observations

Time (MST) Temp. Windchill Dew Point Humidity Pressure Visibility Wind Dir Wind Speed Gust Speed Precip Events Conditions
12:53 AM 3.9 °F -8.2 °F -0.0 °F 84% 30.02 in 10.0 mi South 6.9 mph - N/A   Scattered Clouds
1:06 AM 6.8 °F -3.5 °F 3.2 °F 85% 29.81 in 10.0 mi South 5.8 mph - N/A   Mostly Cloudy
1:53 AM 6.1 °F -6.8 °F 1.0 °F 80% 29.99 in 10.0 mi South 8.1 mph - N/A   Scattered Clouds
2:53 AM 3.9 °F -6.9 °F -0.0 °F 84% 29.99 in 10.0 mi South 5.8 mph - N/A   Clear
3:53 AM 5.0 °F -2.1 °F -0.0 °F 80% 29.97 in 10.0 mi East 3.5 mph - N/A   Clear
4:53 AM 10.0 °F -3.7 °F 3.9 °F 76% 29.94 in 10.0 mi South 10.4 mph - N/A   Clear
5:53 AM 10.9 °F -5.4 °F 6.1 °F 81% 29.92 in 10.0 mi South 15.0 mph 19.6 mph N/A   Clear
6:53 AM 10.0 °F -8.1 °F 5.0 °F 80% 29.92 in 10.0 mi South 18.4 mph - N/A   Scattered Clouds
7:53 AM 10.9 °F 4.7 °F 6.1 °F 81% 29.91 in 10.0 mi Variable 3.5 mph - N/A   Clear
8:53 AM 14.0 °F 3.9 °F 9.0 °F 80% 29.88 in 10.0 mi SSE 6.9 mph - N/A   Mostly Cloudy
9:53 AM 17.1 °F 5.0 °F 10.9 °F 77% 29.88 in 10.0 mi South 10.4 mph - N/A   Clear
10:53 AM 21.9 °F 9.8 °F 15.1 °F 75% 29.89 in 10.0 mi South 12.7 mph - N/A   Clear
11:53 AM 26.1 °F 15.6 °F 18.0 °F 71% 29.86 in 10.0 mi South 11.5 mph - N/A   Clear
12:53 PM 30.9 °F 25.2 °F 19.0 °F 61% 29.81 in 10.0 mi South 5.8 mph - N/A   Clear
1:53 PM 35.1 °F 30.1 °F 17.1 °F 48% 29.78 in 10.0 mi Variable 5.8 mph - N/A   Clear
2:53 PM 33.1 °F 20.1 °F 15.1 °F 48% 29.79 in 10.0 mi NW 25.3 mph 32.2 mph N/A   Overcast
3:53 PM 30.9 °F 17.5 °F 16.0 °F 54% 29.82 in 10.0 mi NNW 24.2 mph - N/A   Mostly Cloudy
4:53 PM 28.0 °F 17.0 °F 16.0 °F 61% 29.85 in 10.0 mi North 13.8 mph - N/A   Overcast
5:53 PM 23.0 °F 14.7 °F 16.0 °F 74% 29.89 in 10.0 mi NW 6.9 mph - N/A   Mostly Cloudy
6:53 PM 21.9 °F 10.4 °F 12.0 °F 66% 29.93 in 10.0 mi NW 11.5 mph - N/A   Overcast
7:53 PM 19.9 °F 10.1 °F 10.0 °F 65% 29.95 in 10.0 mi NW 8.1 mph - N/A   Overcast
8:53 PM 19.9 °F 10.1 °F 10.9 °F 68% 29.95 in 10.0 mi NNW 8.1 mph - N/A   Overcast
9:53 PM 19.0 °F 7.5 °F 10.0 °F 68% 29.95 in 10.0 mi NNW 10.4 mph - N/A   Overcast
10:53 PM 18.0 °F 11.1 °F 8.1 °F 65% 29.96 in 10.0 mi NW 4.6 mph - N/A   Overcast
11:53 PM 17.1 °F 3.0 °F 10.9 °F 77% 29.95 in 5.0 mi NW 13.8 mph - N/A   Haze